AV279 Weather Reports


Display with metric or nautical units.
time (UTC)temp
F
wind
direction
speed
MPH
gust
MPH
rain 1hr
in
rain 24hr
in
rain mn
in
humidity
%
barometer
mb
20260901124530 71 270 2.0 4.0 0.00 0.18 0.01 59 1020.3
20260901123520 72 225 4.0 6.0 0.00 0.18 0.01 60 1020.5
20260901122550 71 270 3.0 6.0 0.00 0.18 0.01 61 1020.2
20260901121519 71 203 2.0 4.0 0.00 0.18 0.01 61 1020.3
20260901120550 70 45 2.0 4.0 0.00 0.18 0.01 62 1020.4
20260901115519 71 270 3.0 7.0 0.00 0.18 0.01 65 1020.5
20260901114519 70 203 2.0 5.0 0.00 0.18 0.01 67 1020.5
20260901113530 69 158 2.0 4.0 0.00 0.18 0.01 66 1020.5
20260901112519 69 203 1.0 2.0 0.00 0.18 0.01 66 1020.5
20260901111559 70 225 2.0 3.0 0.00 0.18 0.01 64 1020.7
20260901110550 70 293 5.0 8.0 0.00 0.18 0.01 65 1020.6
20260901105611 70 225 2.0 4.0 0.00 0.18 0.01 65 1020.5
20260901104716 70 225 3.0 5.0 0.00 0.18 0.01 67 1020.5
20260901103851 70 225 2.0 3.0 0.00 0.18 0.01 67 1020.5
20260901102819 70 248 4.0 8.0 0.00 0.18 0.01 67 1020.5
20260901101840 70 225 3.0 4.0 0.00 0.18 0.01 67 1020.5
20260901100819 70 293 2.0 3.0 0.00 0.18 0.01 69 1020.4
20260901095819 68 293 3.0 8.0 0.00 0.18 0.01 71 1020.4
20260901094830 67 315 1.0 2.0 0.00 0.18 0.01 76 1020.5
20260901093819 67 270 2.0 3.0 0.00 0.18 0.01 73 1020.6
20260901092830 68 270 1.0 4.0 0.00 0.18 0.01 74 1020.5
20260901091819 68 270 3.0 7.0 0.00 0.18 0.01 74 1020.4
20260901090819 68 158 1.0 2.0 0.00 0.18 0.01 78 1020.2
20260901085819 66 0.0 1.0 0.00 0.18 0.01 79 1020.2
20260901084819 66 270 1.0 3.0 0.00 0.18 0.01 79 1020.1
20260901083839 66 248 3.0 8.0 0.00 0.18 0.01 82 1019.9
20260901082839 65 248 1.0 2.0 0.00 0.18 0.01 82 1019.9
20260901081819 66 270 1.0 2.0 0.00 0.18 0.01 83 1020.0
20260901080819 67 180 2.0 5.0 0.00 0.18 0.01 85 1019.8
20260901075841 66 270 1.0 2.0 0.00 0.18 0.01 90 1019.7
20260901074819 65 293 1.0 1.0 0.00 0.18 0.01 92 1019.6
20260901073819 64 0.0 1.0 0.00 0.18 0.01 94 1019.6
20260901072819 62 270 1.0 1.0 0.00 0.18 0.01 94 1019.5
20260901072047 61 248 1.0 2.0 0.00 0.18 0.01 94 1019.4
20260901071519 61 225 1.0 2.0 0.00 0.18 0.01 93 1019.3
20260901070519 61 0.0 1.0 0.00 0.18 0.01 94 1019.2
20260901065530 60 293 1.0 2.0 0.00 0.19 0.01 94 1019.2
20260901064518 60 0.0 1.0 0.00 0.19 0.01 94 1019.1
20260901063519 60 0.0 1.0 0.00 0.19 0.01 94 1019.1
20260901062717 59 225 1.0 2.0 0.00 0.20 0.01 94 1019.1
20260901062019 59 225 1.0 2.0 0.00 0.20 0.01 93 1019.0
20260901061215 59 225 2.0 2.0 0.00 0.20 0.01 93 1018.9
20260901060751 59 0.0 0.0 0.00 0.20 0.01 93 1018.9
20260901055739 59 225 2.0 3.0 0.00 0.20 0.01 93 1018.8
20260901054719 59 225 1.0 2.0 0.00 0.21 0.01 93 1018.8
20260901053719 59 0.0 0.0 0.00 0.21 0.01 93 1018.7
20260901052718 59 0.0 0.0 0.00 0.21 0.01 93 1018.7
20260901051719 59 0.0 0.0 0.00 0.21 0.01 93 1018.6
20260901050729 59 0.0 1.0 0.00 0.21 0.01 93 1018.5
20260901045751 59 0.0 0.0 0.00 0.21 0.01 93 1018.4
20260901044739 60 225 1.0 2.0 0.00 0.21 0.01 93 1018.4
20260901043759 60 0.0 0.0 0.00 0.21 0.01 93 1018.2
20260901042729 60 0.0 0.0 0.00 0.21 0.01 93 1018.1
20260901041739 60 0.0 0.0 0.00 0.21 0.01 93 1018.0
20260901040729 60 0.0 0.0 0.00 0.21 0.01 93 1018.1
20260901035718 60 0.0 0.0 0.00 0.21 0.01 93 1017.9
20260901034719 60 0.0 0.0 0.00 0.21 0.01 93 1017.9
20260901033932 60 0.0 0.0 0.00 0.22 0.01 94 1017.9
20260901033618 60 0.0 0.0 0.00 0.22 0.01 93 1017.9
20260901032639 60 0.0 0.0 0.00 0.22 0.01 93 1017.9
20260901031618 60 0.0 0.0 0.00 0.22 0.01 93 1017.9
20260901030817 61 225 1.0 2.0 0.01 0.22 0.01 93 1017.8
20260901025618 61 270 2.0 2.0 0.01 0.22 0.01 94 1017.7
20260901024618 61 270 1.0 2.0 0.01 0.24 0.01 94 1017.8
20260901023618 61 0.0 0.0 0.01 0.28 0.01 94 1017.6
20260901022618 61 0.0 0.0 0.01 0.28 0.01 93 1017.6
20260901021618 61 0.0 0.0 0.01 0.28 0.01 93 1017.6
20260901020618 61 0.0 0.0 0.00 0.28 0.00 94 1017.7
20260901015640 61 225 1.0 3.0 0.00 0.28 0.00 94 1017.8
20260901014639 62 225 1.0 2.0 0.00 0.28 0.00 94 1017.6
20260901013618 62 225 1.0 2.0 0.00 0.28 0.00 94 1017.7
20260901012618 62 225 1.0 2.0 0.00 0.28 0.00 94 1017.7
20260901011618 62 315 1.0 2.0 0.00 0.28 0.00 94 1017.7
20260901010620 62 248 2.0 3.0 0.00 0.28 0.00 94 1017.7
20260901005640 62 0.0 0.0 0.00 0.29 0.00 94 1017.5
20260901004618 62 248 2.0 3.0 0.00 0.29 0.00 94 1017.6
20260901003620 62 270 2.0 2.0 0.00 0.29 0.00 94 1017.4
20260901002618 62 293 2.0 3.0 0.00 0.32 0.00 94 1017.4
20260901001629 62 225 1.0 2.0 0.00 0.46 0.00 94 1017.5
20260901000619 62 203 1.0 2.0 0.00 0.47 0.00 94 1017.4
20260831235618 62 293 1.0 2.0 0.00 0.47 0.47 94 1017.5
20260831234619 63 225 2.0 3.0 0.00 0.47 0.47 94 1017.4
20260831233619 63 293 2.0 3.0 0.00 0.47 0.47 94 1017.4
20260831232629 63 0.0 0.0 0.00 0.47 0.47 94 1017.4
20260831231618 63 225 2.0 4.0 0.00 0.47 0.47 94 1017.4
20260831230629 63 225 2.0 4.0 0.00 0.47 0.47 94 1017.4
20260831225629 63 203 2.0 3.0 0.00 0.47 0.47 93 1017.5
20260831224618 63 225 3.0 6.0 0.00 0.47 0.47 93 1017.5
20260831223618 63 225 2.0 3.0 0.00 0.47 0.47 93 1017.5
20260831222650 63 203 3.0 5.0 0.00 0.47 0.47 93 1017.5
20260831221618 63 225 2.0 4.0 0.00 0.47 0.47 93 1017.4
20260831220640 63 203 2.0 3.0 0.00 0.47 0.47 93 1017.4
20260831215618 62 225 2.0 3.0 0.00 0.47 0.47 93 1017.3
20260831214629 62 225 3.0 4.0 0.02 0.47 0.47 93 1017.4
20260831213618 62 203 1.0 2.0 0.06 0.47 0.47 92 1017.2
20260831212618 61 203 1.0 2.0 0.17 0.47 0.47 92 1017.2
20260831211618 61 0.0 0.0 0.17 0.47 0.47 91 1017.0
20260831210638 61 225 1.0 2.0 0.17 0.47 0.47 91 1017.0
20260831205619 62 248 1.0 3.0 0.17 0.47 0.47 90 1017.2
20260831204619 62 248 1.0 2.0 0.15 0.45 0.45 89 1017.1
20260831203640 65 270 4.0 7.0 0.11 0.41 0.41 86 1017.1
20260831202640 66 225 2.0 3.0 0.00 0.30 0.30 86 1017.0
20260831201618 66 225 2.0 4.0 0.00 0.30 0.30 85 1017.0
20260831200629 65 203 2.0 4.0 0.00 0.30 0.30 83 1016.8
20260831195649 65 0 1.0 1.0 0.00 0.30 0.30 81 1016.8
20260831194618 65 0.0 1.0 0.00 0.30 0.30 82 1016.8
20260831193618 66 0 1.0 2.0 0.00 0.30 0.30 86 1016.6
20260831192629 65 293 2.0 3.0 0.00 0.30 0.30 86 1016.5
20260831191641 65 270 2.0 4.0 0.00 0.30 0.30 85 1016.1
20260831190618 66 270 3.0 7.0 0.00 0.31 0.30 85 1015.8
20260831185618 66 248 3.0 6.0 0.00 0.31 0.30 84 1015.7
20260831184620 66 225 6.0 12.0 0.00 0.31 0.30 83 1015.7
20260831183640 66 248 4.0 6.0 0.00 0.32 0.30 83 1015.4
20260831182649 67 225 3.0 4.0 0.00 0.33 0.30 82 1015.4
20260831181618 67 248 6.0 16.0 0.00 0.33 0.30 82 1015.1
20260831180826 67 248 3.0 4.0 0.00 0.33 0.30 81 1015.1
20260831175820 68 248 4.0 8.0 0.00 0.33 0.30 81 1015.0
20260831174818 68 248 5.0 9.0 0.00 0.33 0.30 81 1015.0
20260831173818 68 225 10.0 19.0 0.00 0.33 0.30 80 1014.8
20260831172820 68 270 5.0 9.0 0.00 0.33 0.30 79 1014.7
20260831171818 69 225 5.0 11.0 0.00 0.33 0.30 78 1014.7
20260831170820 69 293 7.0 13.0 0.00 0.33 0.30 78 1014.6
20260831165840 69 248 6.0 10.0 0.00 0.33 0.30 78 1014.6
20260831164851 69 270 6.0 12.0 0.00 0.33 0.30 78 1014.5
20260831163841 70 248 5.0 8.0 0.00 0.33 0.30 77 1014.4
20260831163019 70 270 5.0 10.0 0.00 0.33 0.30 76 1014.2
20260831162320 70 248 5.0 9.0 0.00 0.33 0.30 75 1014.1
20260831161330 70 270 6.0 9.0 0.00 0.33 0.30 75 1014.1
20260831160350 70 270 5.0 10.0 0.00 0.33 0.30 74 1014.0
20260831155320 70 248 6.0 11.0 0.00 0.34 0.30 74 1013.8
20260831154320 71 248 5.0 9.0 0.00 0.36 0.30 74 1013.7
20260831153320 71 248 5.0 8.0 0.00 0.38 0.30 72 1013.5
20260831152320 71 270 5.0 8.0 0.00 0.38 0.30 72 1013.5
20260831151320 71 225 4.0 8.0 0.00 0.38 0.30 70 1013.4
20260831150352 71 293 6.0 10.0 0.00 0.38 0.30 70 1013.4
20260831145352 71 248 6.0 9.0 0.00 0.38 0.30 70 1013.3
20260831144401 71 270 4.0 7.0 0.00 0.38 0.30 70 1013.3
20260831143324 72 225 5.0 9.0 0.00 0.38 0.30 69 1013.1
20260831142320 72 248 5.0 7.0 0.00 0.38 0.30 70 1012.9
20260831141513 71 270 4.0 8.0 0.00 0.38 0.30 68 1012.9
20260831140432 72 248 5.0 14.0 0.00 0.38 0.30 67 1012.8
20260831135400 71 270 3.0 6.0 0.00 0.38 0.30 67 1012.7
20260831134320 71 270 5.0 9.0 0.00 0.38 0.30 66 1012.5
20260831133340 72 248 5.0 8.0 0.00 0.38 0.30 64 1012.4
20260831132330 72 248 5.0 8.0 0.00 0.38 0.30 66 1012.4
20260831131320 72 248 4.0 6.0 0.00 0.38 0.30 66 1012.1
20260831130319 71 270 4.0 8.0 0.00 0.38 0.30 68 1011.9
20260831125339 69 270 4.0 8.0 0.00 0.38 0.30 72 1011.9